Theta_e
300 301 301 299 299 298 298 300 302 301 300 299 299 298 298 298 298 298 298 297 296 293 294 296 296 295 295 295 298 299 304 309 311 312 310 310 311 310 310 308 310 309 309 310 310 312 310 312 312 315 313 311 311 310
300 301 301 300 299 298 299 300 302 301 300 299 299 298 298 298 298 298 298 297 296 295 294 296 296 296 296 296 295 294 298 304 304 310 310 308 311 306 307 311 307 310 308 308 308 309 307 310 311 311 309 310 311 311
301 302 302 302 301 300 299 300 301 301 300 300 299 298 298 298 299 298 297 297 297 295 293 294 295 295 296 295 296 295 297 298 299 297 303 308 312 309 309 307 309 308 306 308 309 309 309 307 309 310 310 310 309 308
302 302 302 301 301 300 300 300 301 301 301 301 298 297 298 298 297 297 298 297 297 295 293 293 295 295 295 295 295 295 295 296 296 296 298 304 309 306 308 308 309 308 307 308 308 308 309 308 308 308 308 307 307 307
302 302 302 301 300 300 300 301 301 301 301 299 298 298 298 299 296 297 294 294 296 295 295 294 295 296 294 295 295 295 295 295 295 295 295 298 301 303 304 306 307 308 309 309 309 307 307 307 306 307 307 308 307 306
302 302 302 301 300 300 301 301 300 300 298 298 298 298 298 296 296 297 295 295 295 295 295 296 295 295 294 294 295 295 295 295 295 296 295 295 297 302 303 304 303 305 306 306 308 308 307 308 306 307 306 304 304 304
302 302 301 301 301 301 302 300 299 298 298 298 297 297 296 295 296 295 295 294 294 294 294 294 295 296 294 296 296 295 295 295 295 296 296 295 296 298 300 300 301 303 306 305 306 307 309 308 307 303 302 301 302 302
302 301 301 302 301 301 299 299 298 298 297 296 295 294 294 296 296 295 294 294 294 294 293 294 296 297 297 299 299 295 296 295 295 295 295 295 295 294 296 297 298 299 304 306 303 303 305 301 300 300 300 300 301 300
302 301 301 301 301 299 299 298 298 297 296 295 294 296 296 296 295 295 293 294 294 294 293 293 296 298 299 300 300 297 296 295 295 296 295 294 295 295 297 297 296 303 303 302 302 301 300 300 300 301 301 300 300 299
302 302 301 301 300 299 298 298 297 296 295 296 295 296 294 294 293 293 295 296 294 295 295 294 296 297 299 300 301 301 298 297 298 295 296 296 296 297 296 298 304 303 302 301 302 301 297 296 299 300 299 298 298 298
301 301 301 301 299 298 297 297 296 296 295 295 295 294 294 294 295 295 297 296 297 296 296 295 297 299 297 300 301 302 302 299 305 301 300 303 307 303 299 297 297 297 299 298 298 298 298 298 298 297 297 297 298 297
300 301 301 300 298 297 297 296 296 295 295 294 293 293 294 295 291 288 286 294 295 297 298 299 297 296 297 298 301 301 303 303 304 302 304 309 306 300 299 296 296 296 297 298 297 298 297 296 296 296 297 297 296 296
300 300 301 299 298 298 297 297 296 295 293 294 293 288 290 287 289 287 290 290 290 294 291 292 293 295 297 299 302 303 306 308 302 306 310 307 299 297 296 296 295 293 295 296 295 295 295 295 295 295 296 294 295 295
300 301 300 298 298 298 297 297 296 295 294 288 284 288 288 287 287 289 289 287 291 289 289 291 294 294 296 299 303 305 307 305 305 305 306 303 298 295 295 295 295 294 294 294 294 293 293 293 292 291 290 290 291 292
301 300 299 298 298 298 298 297 296 295 294 288 286 289 285 289 283 284 288 285 287 288 289 289 291 296 297 299 301 304 307 306 307 307 304 300 297 295 295 294 293 291 291 291 292 291 291 290 290 289 289 289 289 289
301 300 299 299 299 299 298 298 296 294 291 284 284 287 287 284 283 283 281 284 286 290 287 290 292 296 299 300 302 306 308 307 303 302 301 298 295 295 292 291 289 288 289 290 290 290 290 289 288 288 288 286 288 288
300 300 299 299 299 299 298 297 294 289 291 291 285 287 285 282 286 285 290 290 291 288 287 288 289 291 291 298 298 302 304 301 299 298 296 295 295 294 292 290 289 288 288 288 288 288 288 287 286 285 284 284 287 288
300 300 300 299 299 298 297 295 291 291 292 292 286 288 290 289 288 290 289 289 289 287 292 286 291 293 291 295 296 295 293 295 291 290 290 293 293 292 291 289 289 287 287 288 288 287 287 286 286 284 284 284 285 285
299 300 299 299 298 297 294 293 292 293 293 292 292 287 286 287 288 289 288 290 290 291 291 291 292 293 291 289 289 287 292 294 294 296 295 294 293 293 292 291 289 287 286 287 286 286 285 285 284 284 283 284 284 284
299 299 299 298 297 294 293 291 290 291 292 285 279 279 282 285 286 284 286 288 290 290 291 291 290 290 290 290 286 287 288 290 291 292 292 292 294 292 292 291 289 289 288 287 285 285 284 284 284 283 283 283 284 284
297 298 298 298 297 296 293 291 290 290 290 281 276 279 280 278 279 279 281 284 289 290 287 289 289 289 289 289 290 289 289 289 289 289 291 291 291 292 290 290 289 288 285 284 284 284 285 283 283 283 283 283 283 284
296 297 297 296 295 293 293 291 291 286 279 278 277 277 275 277 277 277 279 288 288 285 285 284 285 288 287 287 288 289 288 287 286 286 287 287 288 285 285 288 287 286 285 284 284 283 283 283 283 283 282 283 283 283
296 296 295 294 294 294 291 288 290 284 284 280 276 279 277 276 273 279 280 279 282 282 285 286 287 289 287 288 287 286 286 285 283 284 284 285 286 287 287 288 289 286 285 286 286 284 284 283 283 283 283 282 282 283
295 294 291 292 294 291 285 282 285 283 282 283 279 279 277 275 276 274 280 279 282 283 283 283 285 282 283 283 281 283 287 286 286 286 286 285 283 285 287 287 288 288 288 287 286 285 284 283 283 283 282 282 282 281
292 293 292 291 285 287 282 282 283 287 282 279 280 279 277 272 276 273 279 284 279 281 283 282 282 283 284 282 281 285 288 287 285 283 286 286 287 286 285 285 285 286 286 285 285 284 284 283 283 282 282 281 281 281
290 288 291 286 287 287 284 282 282 280 278 278 279 274 270 274 277 281 280 279 280 279 281 284 284 284 283 283 283 282 288 288 287 283 286 287 286 286 284 282 282 284 285 285 285 284 283 283 282 282 281 281 281 281
284 284 290 288 286 285 284 282 282 280 276 279 276 275 274 280 280 281 280 279 283 288 292 291 288 285 286 286 287 287 287 286 286 286 286 286 285 285 285 284 284 286 287 286 284 283 283 282 282 282 281 281 281 280
287 285 287 286 283 279 281 279 278 280 281 282 282 277 280 281 284 281 281 290 290 290 289 289 288 288 286 286 286 285 285 285 284 284 284 284 285 285 285 286 287 286 285 285 285 284 283 283 282 282 281 281 280 279
289 282 283 283 277 277 280 282 281 283 285 285 282 281 280 280 279 278 290 291 290 288 286 285 287 287 286 286 285 285 285 284 281 281 281 282 284 285 287 287 287 286 285 283 283 283 282 282 281 281 280 280 279 278
285 279 280 276 281 283 282 283 281 276 279 282 281 279 281 280 287 289 289 288 287 285 287 287 286 286 284 284 284 283 284 284 283 281 282 282 283 283 285 285 285 285 283 281 281 281 281 281 280 279 278 278 278 278
281 278 280 281 280 276 276 272 274 280 273 271 270 277 285 280 283 287 287 287 287 286 285 284 284 284 283 281 279 274 277 281 280 280 280 280 280 280 281 281 281 280 280 280 279 279 279 278 278 278 277 277 277 275
280 282 280 279 277 271 267 271 270 272 269 270 273 266 270 271 276 278 288 288 286 282 284 285 282 282 281 279 278 277 277 277 277 277 278 278 278 278 278 279 279 279 278 278 277 277 276 276 276 276 275 275 275 275
281 281 276 273 274 274 270 272 270 271 268 268 272 271 271 276 280 278 286 287 286 286 284 283 282 280 279 277 276 276 275 275 276 277 277 277 277 277 277 277 276 276 276 276 276 276 276 275 275 275 274 274 274 274
Wind_Speed
22 18 15 11 8 5 1 2 4 6 9 12 12 13 15 16 12 11 5 8 4 1 4 2 4 3 4 3 1 4 2 3 3 1 2 3 2 3 1 4 6 6 5 4 4 3 6 3 3 3 2 3 3 4
22 19 15 11 8 4 1 3 5 5 7 10 11 12 13 14 12 11 2 10 4 3 5 13 14 13 12 1 2 3 2 2 2 2 3 3 3 2 3 2 1 3 6 4 7 5 5 6 3 3 4 3 1 4
23 19 15 11 7 3 1 3 4 6 7 8 10 12 11 13 13 12 8 8 5 2 4 3 2 4 3 2 7 2 1 3 3 1 2 2 4 1 2 5 4 3 5 3 1 2 4 6 4 4 3 4 3 4
23 19 14 10 7 4 2 3 4 6 8 6 10 11 11 13 16 9 5 7 3 1 1 4 1 4 7 5 5 8 3 3 2 1 1 2 3 3 3 4 2 5 4 6 4 5 4 3 6 7 6 6 6 5
23 19 14 10 7 4 2 2 2 6 6 5 9 11 12 13 15 4 5 5 3 2 1 4 12 3 6 3 2 2 3 2 1 1 1 3 3 3 3 3 7 3 5 4 5 7 5 5 7 8 8 7 6 5
23 20 16 12 7 4 1 0 3 5 6 6 9 12 13 15 7 1 1 6 8 6 0 2 3 2 2 0 3 3 3 2 2 2 2 3 3 1 4 4 5 12 7 3 5 5 5 3 5 5 6 7 5 4
23 20 16 12 8 5 3 3 3 2 2 4 8 12 13 5 4 4 2 4 8 5 2 3 4 2 1 2 1 1 3 2 2 2 2 2 2 2 3 9 10 13 9 14 9 7 3 4 4 5 8 5 4 1
23 20 16 12 8 7 5 4 2 3 6 8 10 7 5 6 5 3 6 6 7 3 2 2 3 3 4 2 2 2 2 1 2 2 2 3 1 3 5 6 13 19 11 13 5 4 5 7 7 6 5 3 3 2
22 19 16 12 10 7 7 4 3 5 9 9 7 8 4 3 3 3 8 4 4 4 2 1 2 3 1 2 1 0 1 1 2 3 3 2 2 4 8 9 10 5 4 13 5 6 7 6 6 5 4 4 2 2
22 19 16 14 12 11 7 4 4 6 5 7 5 3 2 3 7 1 0 1 2 2 1 1 1 3 2 1 2 1 2 2 2 4 2 2 4 13 9 7 3 6 7 5 8 3 2 3 4 3 2 1 1 2
21 18 17 15 12 10 8 6 7 5 7 4 3 2 4 5 1 1 2 2 2 2 1 2 2 4 2 2 2 2 2 2 3 3 4 3 2 4 11 5 5 3 6 4 2 3 4 5 4 2 2 2 3 4
21 20 18 16 14 12 9 6 6 7 4 3 5 4 3 2 2 4 2 2 1 2 2 2 3 3 3 2 2 3 3 2 4 4 3 2 2 4 4 5 5 5 4 4 3 3 5 6 5 3 3 4 6 7
24 22 19 16 16 12 9 5 4 6 11 6 4 3 3 2 5 4 2 4 3 2 2 3 3 1 3 2 3 3 3 3 0 2 2 2 5 4 2 2 2 2 2 1 2 4 5 5 6 3 3 5 6 6
25 22 19 16 16 12 9 5 3 2 3 3 3 3 3 3 3 4 4 4 4 1 2 2 3 0 2 2 3 4 3 2 2 2 3 3 7 6 4 3 0 1 2 2 2 4 4 4 4 5 7 7 7 7
24 23 19 16 14 12 8 3 4 3 3 3 3 2 2 3 2 3 0 2 2 1 1 3 3 1 2 3 3 4 3 3 1 5 3 6 7 5 5 4 3 4 3 3 3 4 5 5 4 5 6 7 7 7
25 20 16 16 14 11 7 3 4 3 3 3 3 2 1 3 4 3 0 2 2 1 1 1 3 2 3 2 3 4 4 3 4 5 4 4 6 3 3 5 4 3 3 3 5 6 4 5 4 3 4 8 7 7
24 7 22 20 16 12 8 2 2 4 2 2 2 2 2 2 4 3 2 2 1 2 1 1 2 5 3 3 3 3 2 2 3 4 2 4 5 4 3 3 4 3 2 3 3 4 3 4 2 4 5 8 7 8
4 17 25 23 20 13 4 4 4 2 1 1 0 2 1 2 2 2 2 2 3 2 1 3 2 2 4 4 4 3 2 2 2 2 2 4 3 5 5 6 7 5 1 1 4 6 4 3 3 2 4 6 5 6
20 25 21 20 17 5 3 3 2 2 3 1 2 2 2 3 3 3 2 1 4 3 1 1 3 4 4 4 4 3 3 3 3 3 3 7 10 9 10 11 10 7 5 8 9 7 5 4 4 3 3 4 4 4
18 20 20 18 13 4 3 2 1 2 3 3 1 1 2 3 2 0 0 3 2 2 3 4 6 4 4 5 3 3 3 4 3 5 7 4 12 12 13 13 12 15 15 14 12 8 7 6 6 6 4 3 4 4
20 16 16 14 2 4 2 3 2 3 2 2 2 2 3 2 2 1 2 2 2 3 4 6 7 8 11 14 16 15 13 7 5 5 8 9 10 13 14 16 17 15 12 11 8 10 11 11 7 5 5 5 4 4
8 17 5 4 3 2 1 2 2 2 2 2 1 1 1 2 3 2 1 4 4 5 4 4 4 6 5 6 8 13 20 20 18 15 18 17 8 4 6 14 12 9 12 14 16 13 12 10 8 7 6 5 4 5
14 8 3 3 2 3 2 3 3 3 2 2 2 2 3 2 3 1 2 4 5 6 11 8 9 14 12 20 20 19 13 12 8 10 11 12 15 18 18 19 17 14 8 15 21 18 16 11 10 8 7 6 6 6
8 3 4 3 4 2 3 2 1 1 1 1 2 4 4 3 1 1 4 4 4 4 5 8 11 2 5 6 2 7 10 9 13 18 17 13 6 12 16 19 18 20 21 19 12 19 17 15 12 10 9 9 9 9
5 4 3 5 2 3 3 2 2 3 4 4 3 4 3 2 0 3 5 4 3 3 4 4 4 4 3 3 4 9 10 11 11 5 20 15 15 16 15 15 16 18 16 16 17 17 20 18 17 15 14 13 13 12
4 5 7 6 2 5 6 5 6 6 3 2 6 2 2 2 1 6 3 3 2 2 2 2 2 2 4 11 4 4 17 14 11 8 21 19 15 10 5 4 4 12 15 20 21 21 20 19 19 18 18 16 13 13
4 6 4 2 3 3 2 2 1 3 4 6 3 2 3 2 6 5 3 3 3 8 8 15 16 12 11 16 22 25 25 23 21 21 25 24 22 19 18 11 8 15 10 13 19 22 23 22 21 20 20 17 16 15
4 5 8 5 1 0 4 3 5 7 5 3 4 4 7 8 6 3 4 4 12 12 15 19 21 24 29 32 35 33 33 30 25 22 23 27 29 28 28 27 27 23 19 14 14 16 18 19 18 17 17 17 13 11
4 2 4 4 2 2 6 7 6 5 4 5 6 5 5 4 4 4 17 25 23 20 20 21 29 27 25 25 25 25 26 25 11 10 12 9 7 13 15 16 17 19 20 19 17 17 16 15 14 13 12 10 9 8
3 3 3 4 6 8 6 7 4 2 2 4 2 3 4 4 17 23 24 25 23 20 26 25 26 21 18 16 17 21 22 18 19 16 8 8 6 9 9 9 11 12 14 14 14 13 7 9 8 8 8 9 10 11
4 3 2 4 5 4 3 2 3 2 2 1 1 3 9 5 14 25 28 30 33 32 22 19 20 18 16 17 14 7 7 9 5 10 14 19 21 21 17 12 7 5 8 11 12 12 13 12 12 12 12 12 12 11
2 6 5 4 4 3 2 1 1 2 2 1 3 0 3 3 4 4 11 19 25 16 23 19 19 16 16 15 16 16 16 18 17 15 15 15 14 10 9 10 9 8 7 7 7 8 9 9 9 10 11 13 13 13
2 2 2 1 3 4 2 2 3 4 2 3 4 4 4 4 7 4 7 15 22 24 22 19 16 14 14 13 11 8 6 5 1 1 3 4 4 2 0 1 3 3 4 5 5 6 7 8 10 11 11 12 13 15
Wind_Direction
170 167 157 150 160 167 195 335 338 344 356 11 9 7 9 5 14 17 11 13 27 293 284 341 2 348 337 10 33 323 331 16 338 278 144 260 220 240 218 187 171 169 171 192 188 220 268 155 78 190 223 347 40 81
169 167 157 157 152 155 176 330 340 348 352 3 5 7 5 359 3 10 345 331 305 193 245 299 293 275 268 287 20 326 324 338 27 297 16 301 331 341 191 246 91 191 184 188 178 213 231 196 216 181 165 149 69 107
168 165 159 162 162 168 245 308 332 351 347 350 5 2 355 360 2 352 338 340 311 313 310 17 57 51 96 222 228 222 353 3 51 312 329 287 271 67 252 246 214 234 169 216 143 248 224 210 175 180 155 146 130 127
166 165 167 163 163 170 235 297 328 356 348 349 5 0 345 343 345 343 356 344 303 290 1 291 304 325 312 254 208 221 282 9 68 45 1 302 277 39 274 271 228 210 152 192 248 275 287 210 201 173 140 131 128 136
164 163 163 154 153 161 211 321 357 6 10 4 357 345 337 337 343 359 46 31 31 64 308 303 321 318 6 153 173 149 209 197 101 4 152 232 265 307 259 277 242 239 208 179 217 234 201 230 211 163 149 164 159 148
164 163 157 151 149 160 210 7 56 77 60 8 343 337 337 339 341 265 10 39 22 9 51 317 316 280 313 310 233 206 167 157 172 187 231 257 255 268 265 270 230 234 227 242 226 198 163 111 92 110 125 143 133 136
166 161 154 151 154 159 151 138 105 112 60 347 342 335 335 12 36 59 113 337 349 352 37 332 333 298 220 205 230 218 200 196 165 234 235 237 271 223 249 252 284 292 333 332 265 122 89 159 155 106 112 101 91 57
166 157 152 147 150 146 135 116 80 42 24 4 359 11 69 77 77 35 29 5 9 74 47 37 290 314 2 299 287 186 185 173 230 239 275 238 259 220 259 252 232 267 284 325 317 82 123 119 110 99 91 75 58 358
163 155 150 145 148 137 136 112 78 33 18 29 77 99 86 60 46 349 334 355 29 97 112 55 356 303 340 276 263 287 227 235 195 229 240 150 245 236 239 239 262 284 96 332 278 69 87 100 109 97 94 66 70 315
160 154 152 149 143 141 133 120 60 20 39 85 84 57 40 26 339 341 274 261 350 33 47 150 230 278 346 291 275 243 173 230 233 227 142 221 253 263 264 246 260 112 148 298 290 81 64 78 133 119 89 26 301 293
159 159 154 148 146 134 120 93 43 46 64 61 62 65 333 341 312 293 7 31 357 4 163 233 229 300 298 251 282 269 254 223 261 195 187 238 232 299 346 35 32 55 130 166 300 27 66 113 130 122 62 16 11 2
175 163 158 155 149 134 119 93 59 52 78 118 124 85 50 329 16 78 316 343 43 274 306 286 281 248 290 256 266 248 249 218 254 137 228 256 332 314 330 329 350 353 16 64 16 76 79 89 90 88 67 40 17 356
161 158 158 155 150 146 134 109 65 58 120 104 77 60 69 331 20 92 314 309 349 303 288 321 322 284 314 260 260 265 248 240 31 226 254 60 302 317 293 308 331 333 358 52 30 78 91 96 84 72 82 43 14 3
160 159 153 152 145 149 149 133 62 84 103 76 86 27 114 321 255 187 181 197 249 195 313 303 274 175 293 290 278 270 280 304 279 320 348 331 327 317 330 343 323 48 81 92 67 69 75 87 89 70 53 37 19 3
159 156 156 157 155 166 169 135 39 20 72 101 91 147 208 239 266 236 259 20 283 234 38 348 305 224 274 283 259 283 261 251 45 20 318 309 318 327 335 1 29 27 30 40 53 59 48 43 55 53 43 34 26 17
154 149 168 167 165 166 164 132 27 37 57 67 51 63 256 53 302 341 31 256 247 298 12 51 300 319 263 303 288 272 286 38 349 303 280 305 311 300 355 339 348 3 25 38 43 54 23 17 16 30 45 29 21 14
158 150 173 169 164 154 141 66 54 44 88 96 279 240 154 161 222 246 195 242 41 44 293 21 11 236 327 266 266 211 235 234 261 286 280 296 297 286 301 295 302 323 23 37 45 39 15 330 341 36 26 6 14 17
137 154 163 165 158 139 103 65 80 86 94 204 237 274 228 217 220 273 252 173 109 134 137 245 283 265 238 241 267 260 274 264 236 227 256 280 260 254 253 279 253 245 217 291 286 270 263 330 5 357 353 356 1 9
154 156 163 161 150 119 93 83 92 186 193 220 270 286 223 266 256 250 217 169 120 101 98 230 246 233 241 229 246 271 283 289 272 283 269 275 264 236 235 235 252 258 249 247 254 255 258 267 273 281 314 336 340 349
147 151 160 163 160 101 103 116 104 164 193 225 53 273 217 225 240 234 212 162 132 171 207 223 223 219 214 244 218 244 254 262 277 293 294 273 277 252 235 231 220 237 238 245 244 251 259 261 253 247 268 293 300 325
136 154 159 167 128 90 130 127 174 208 200 184 242 132 258 342 292 197 205 172 172 208 234 231 235 253 258 269 278 282 284 268 260 252 278 287 281 278 262 249 244 232 222 221 225 239 237 240 250 240 252 262 274 290
139 162 120 164 105 105 112 122 125 126 122 215 355 124 278 280 247 241 155 189 226 233 209 210 228 241 262 268 277 287 289 292 285 277 279 277 277 276 253 247 226 231 230 230 227 226 234 237 231 237 253 269 273 287
138 141 98 89 114 182 193 156 170 186 171 252 35 351 272 257 229 42 239 222 244 230 224 228 246 252 254 280 293 295 289 269 265 271 279 281 279 276 271 266 249 227 240 251 245 237 228 223 218 229 245 252 264 277
121 104 138 190 182 202 89 189 171 110 78 226 156 269 267 227 142 58 252 250 250 233 202 226 218 268 290 286 269 264 299 300 286 292 290 277 275 278 279 271 263 254 252 260 261 230 225 221 222 227 234 244 252 260
110 196 177 220 193 119 154 151 191 178 239 202 179 270 257 68 223 255 235 278 266 268 250 227 199 198 212 257 260 277 312 276 252 257 290 280 268 284 288 279 269 261 259 240 233 224 220 222 227 234 236 238 246 254
188 212 195 198 195 166 183 171 199 209 174 214 232 259 49 94 51 251 237 237 245 248 274 177 178 241 248 230 250 280 299 303 256 240 279 292 266 240 247 254 272 278 247 236 234 226 226 226 229 233 238 238 239 248
191 219 197 188 151 120 105 56 90 130 171 211 222 155 112 204 242 250 269 235 222 207 247 256 243 228 250 274 282 292 298 291 271 270 286 284 281 274 262 243 243 260 261 246 237 235 235 236 236 238 243 249 244 243
194 174 180 174 138 149 150 163 171 203 223 196 131 187 197 203 232 235 218 256 264 276 277 278 280 275 270 276 288 294 297 298 296 281 278 280 281 277 268 260 260 261 259 252 245 241 240 244 247 244 240 240 247 241
191 171 116 153 119 199 209 190 210 221 193 166 179 215 231 217 224 230 265 283 287 286 283 288 291 291 287 285 285 287 289 284 269 276 276 279 288 281 285 271 266 253 248 246 245 248 244 241 237 238 244 246 255 254
196 158 108 165 171 217 221 192 221 247 205 188 218 311 276 261 260 272 277 278 271 268 272 275 276 281 278 287 291 292 297 288 266 238 254 263 265 304 324 299 281 264 245 237 224 215 200 208 208 214 228 239 250 261
141 119 123 182 229 239 223 299 305 260 10 261 290 207 266 292 289 280 271 271 269 265 267 271 278 276 272 275 271 275 292 309 302 287 276 274 277 280 282 276 265 255 237 230 225 222 218 219 225 232 241 252 261 268
125 184 172 212 261 279 19 135 256 219 291 255 260 320 325 352 274 279 258 258 250 255 259 261 263 277 293 287 285 279 277 282 290 289 291 292 288 280 258 263 263 251 232 215 212 216 222 232 240 247 259 269 274 277
123 131 130 9 333 318 308 96 11 308 302 257 253 204 210 205 241 266 271 255 253 260 268 279 281 286 295 300 299 291 282 288 300 38 356 5 17 19 233 207 225 224 220 218 226 241 252 259 265 271 274 275 278 285